Sussex, NJ

3:07 PM EST on January 20, 2017 (GMT -0500)
Sussex

Weather History for KFWN - February, 2013

Change the Weather History Date:

Friday, February 8, 2013

  Actual Average Record
Temperature  
Mean Temperature 28 °F -  
Max Temperature 30 °F 32 °F 52 °F (1990)
Min Temperature 27 °F 10 °F -22 °F (1967)
Degree Days  
Heating Degree Days 36    
Moisture  
Dew Point 25 °F    
Average Humidity 84    
Maximum Humidity 93    
Minimum Humidity 61    
Precipitation  
Precipitation 0.17 in - - ()
Sea Level Pressure  
Sea Level Pressure 29.91 in    
Wind  
Wind Speed 10 mph (NNE)    
Max Wind Speed 15 mph    
Max Gust Speed 28 mph    
Visibility 3 miles    
Events Fog , Snow    
Averages and records for this station are not official NWS values.
T = Trace of Precipitation, MM = Missing Value Source: NWS Daily Summary

Daily Weather History Graph

Daily Weather History Graph

Search for Another Location

Airport or City:

Trip Planner

Search our weather history database for the weather conditions in past years. The results will help you decide how hot, cold, wet, or windy it might be!

Date:

Astronomy

Feb. 08, 2013 Rise Set
Actual Time 7:01 AM EST 5:24 PM EST
Civil Twilight 6:32 AM EST 5:52 PM EST
Nautical Twilight 6:00 AM EST 6:25 PM EST
Astronomical Twilight 5:28 AM EST 6:57 PM EST
Moon 5:28 AM EST (2/8) 3:54 PM EST (2/8)
Length of Visible Light 11h 19m
Length of Day
10h 22m
Waning Crescent, 3% of the Moon is Illuminated
Feb 8
Waning Crescent
Feb 10
New
Feb 17
First Quarter
Feb 25
Full
Mar 4
Last Quarter

Hourly Weather History & Observations

Time (EST) Temp. Windchill Dew Point Humidity Pressure Visibility Wind Dir Wind Speed Gust Speed Precip Events Conditions
12:53 AM 27.0 °F 19.5 °F 15.1 °F 61% 30.30 in 10.0 mi North 6.9 mph - N/A   Overcast
1:53 AM 28.9 °F 21.9 °F 18.0 °F 64% 30.27 in 10.0 mi NNE 6.9 mph - N/A   Overcast
2:53 AM 28.9 °F 21.1 °F 21.0 °F 72% 30.23 in 10.0 mi NNE 8.1 mph - N/A   Overcast
3:53 AM 30.0 °F 22.4 °F 21.9 °F 72% 30.20 in 10.0 mi ENE 8.1 mph - N/A   Overcast
4:53 AM 30.9 °F 23.5 °F 23.0 °F 72% 30.19 in 10.0 mi ENE 8.1 mph - N/A   Overcast
5:53 AM 30.0 °F 22.4 °F 24.1 °F 79% 30.17 in 7.0 mi NE 8.1 mph - N/A   Overcast
6:41 AM 28.4 °F 21.2 °F 24.8 °F 86% 30.13 in 2.5 mi NNE 6.9 mph - 0.00 in Snow Light Snow
6:53 AM 28.9 °F 20.4 °F 24.1 °F 82% 30.14 in 4.0 mi NNE 9.2 mph - 0.00 in   Haze
7:24 AM 28.4 °F 19.1 °F 24.8 °F 86% 30.11 in 9.0 mi NNE 10.4 mph - N/A   Overcast
7:53 AM 28.0 °F 17.5 °F 24.1 °F 85% 30.13 in 7.0 mi NNE 12.7 mph - N/A   Overcast
8:10 AM 28.4 °F 17.5 °F 24.8 °F 86% 30.10 in 2.5 mi NNE 13.8 mph 18.4 mph N/A   Overcast
8:17 AM 28.4 °F 19.1 °F 24.8 °F 86% 30.10 in 4.0 mi NNE 10.4 mph 18.4 mph N/A   Overcast
8:49 AM 28.4 °F 19.1 °F 24.8 °F 86% 30.08 in 2.0 mi NNE 10.4 mph - N/A   Overcast
8:53 AM 28.0 °F 18.6 °F 24.1 °F 85% 30.10 in 1.5 mi NNE 10.4 mph - N/A   Overcast
9:05 AM 28.4 °F 19.1 °F 24.8 °F 86% 30.07 in 1.2 mi NNE 10.4 mph - 0.00 in   Overcast
9:13 AM 28.4 °F 19.1 °F 24.8 °F 86% 30.06 in 1.5 mi NNE 10.4 mph - 0.00 in   Overcast
9:32 AM 28.4 °F 18.0 °F 24.8 °F 86% 30.05 in 1.2 mi NNE 12.7 mph - 0.00 in Snow Light Snow
9:53 AM 28.9 °F 19.2 °F 25.0 °F 85% 30.05 in 1.2 mi NNE 11.5 mph - 0.00 in Snow Light Snow
10:46 AM 30.2 °F 19.3 °F 26.6 °F 86% 30.00 in 0.8 mi NNE 15.0 mph - 0.00 in Snow Light Snow
10:53 AM 30.0 °F 20.5 °F 26.1 °F 85% 30.01 in 0.8 mi NNE 11.5 mph - 0.00 in Snow Light Snow
11:15 AM 30.2 °F 20.8 °F 26.6 °F 86% 29.98 in 1.0 mi NNE 11.5 mph - 0.00 in Snow Light Snow
11:53 AM 30.0 °F 19.5 °F 26.1 °F 85% 29.96 in 1.0 mi NNE 13.8 mph 20.7 mph 0.00 in Snow Light Snow
12:33 PM 30.2 °F 20.8 °F 26.6 °F 86% 29.91 in 0.8 mi NE 11.5 mph - 0.00 in Snow Light Snow
12:53 PM 30.0 °F 19.5 °F 26.1 °F 85% 29.91 in 1.0 mi NNE 13.8 mph 23.0 mph 0.01 in Snow Light Snow
1:20 PM 30.2 °F 19.8 °F 26.6 °F 86% 29.86 in 0.8 mi NE 13.8 mph - 0.00 in Snow Light Snow
1:37 PM 30.2 °F 20.2 °F 26.6 °F 86% 29.85 in 0.5 mi NE 12.7 mph 21.9 mph 0.00 in Fog , Snow Snow
1:53 PM 30.0 °F 20.0 °F 27.0 °F 88% 29.85 in 0.5 mi NNE 12.7 mph 24.2 mph 0.01 in Fog , Snow Snow
2:25 PM 30.2 °F 20.8 °F 26.6 °F 86% 29.82 in 0.8 mi NE 11.5 mph 23.0 mph 0.00 in Snow Light Snow
2:53 PM 30.0 °F 19.1 °F 26.1 °F 85% 29.81 in 0.8 mi NNE 15.0 mph 20.7 mph 0.00 in Snow Light Snow
3:26 PM 30.2 °F 21.9 °F 26.6 °F 86% 29.77 in 0.8 mi NNE 9.2 mph - 0.00 in Snow Light Snow
3:53 PM 30.0 °F 21.1 °F 26.1 °F 85% 29.77 in 0.8 mi NE 10.4 mph 19.6 mph 0.01 in Snow Light Snow
4:53 PM 30.0 °F 21.1 °F 27.0 °F 88% 29.75 in 0.8 mi NNE 10.4 mph - 0.01 in Snow Light Snow
5:11 PM 30.2 °F 23.4 °F 26.6 °F 86% 29.73 in 1.0 mi NE 6.9 mph - 0.01 in Snow Light Snow
5:32 PM 30.2 °F 20.8 °F 26.6 °F 86% 29.72 in 1.2 mi NE 11.5 mph 20.7 mph 0.01 in Snow Light Snow
5:41 PM 30.2 °F 21.9 °F 26.6 °F 86% 29.72 in 1.5 mi NE 9.2 mph 18.4 mph 0.01 in Snow Light Snow
5:53 PM 30.0 °F 19.5 °F 26.1 °F 85% 29.73 in 1.2 mi NNE 13.8 mph 27.6 mph 0.01 in Snow Light Snow
6:03 PM 30.2 °F 20.2 °F 26.6 °F 86% 29.72 in 1.5 mi NNE 12.7 mph - 0.00 in Snow Light Snow
6:36 PM 30.2 °F 19.3 °F 26.6 °F 86% 29.71 in 2.5 mi NNE 15.0 mph 21.9 mph 0.00 in Snow Light Snow
7:30 PM 30.2 °F 19.8 °F 26.6 °F 86% 29.69 in 3.0 mi NNE 13.8 mph 25.3 mph 0.00 in   Overcast
7:53 PM 30.0 °F 19.1 °F 25.0 °F 82% 29.70 in 4.0 mi NNE 15.0 mph 21.9 mph 0.00 in   Overcast
8:12 PM 30.2 °F 19.8 °F 24.8 °F 80% 29.70 in 9.0 mi NNE 13.8 mph 20.7 mph 0.00 in   Overcast
8:53 PM 30.0 °F 21.1 °F 21.9 °F 72% 29.73 in 10.0 mi North 10.4 mph 20.7 mph 0.00 in   Overcast
9:22 PM 30.2 °F 23.4 °F 23.0 °F 75% 29.72 in 2.0 mi Variable 6.9 mph - 0.00 in Snow Light Snow
9:31 PM 30.2 °F 22.6 °F 24.8 °F 80% 29.73 in 1.5 mi North 8.1 mph - 0.00 in Snow Light Snow
9:38 PM 28.4 °F 19.1 °F 24.8 °F 86% 29.73 in 1.2 mi North 10.4 mph - 0.01 in Snow Light Snow
9:46 PM 28.4 °F 20.4 °F 24.8 °F 86% 29.73 in 0.8 mi North 8.1 mph - 0.01 in Snow Light Snow
9:53 PM 28.9 °F 21.9 °F 25.0 °F 85% 29.75 in 0.8 mi Variable 6.9 mph - 0.01 in Snow Light Snow
10:02 PM 28.4 °F 21.2 °F 24.8 °F 86% 29.74 in 0.8 mi North 6.9 mph - 0.01 in Snow Light Snow
10:49 PM 28.4 °F 20.4 °F 26.6 °F 93% 29.74 in 0.5 mi NNE 8.1 mph - 0.04 in Fog , Snow Snow
10:53 PM 28.9 °F 21.9 °F 26.1 °F 89% 29.75 in 0.5 mi NE 6.9 mph - 0.05 in Fog , Snow Snow
11:39 PM 28.4 °F 24.6 °F 26.6 °F 93% 29.75 in 0.8 mi ENE 3.5 mph - 0.04 in Snow Light Snow
11:53 PM 28.9 °F - 26.1 °F 89% 29.76 in 0.8 mi Calm Calm - 0.06 in Snow Light Snow